Location: Gaast
(52.9002°N, 5.8891°E)
Time: 12:29:07
(UTC+00:00)

ACS3 Solar Sail - Pass Details

Date: 28 January 2026
Orbit: 900 x 968 km, 97.2° (Epoch: 10 February)

Event Time Altitude Azimuth Distance (km) Brightness Sun altitude
Rises 02:21:04 0° 12° (NNE) 3,622 5.3 -44.5°
Reaches altitude 10° 02:23:32 10° 11° (N) 2,663 4.4 -44.2°
Enters shadow 02:23:57 12° 11° (N) 2,507 4.3 -44.2°
